Regional Weather Roundup
Issued by NWS Glasgow, MT

Home | Current Version | Previous Version | Text Only | Print | Product List | Glossary On
Versions: 1 2 3 4 5 6 7 8 9 10 11 12 13 14 15 16 17 18 19 20 21 22 23 24 25 26 27
000
ASUS45 KGGW 270315
RWRGGW
HOURLY REGIONAL WEATHER ROUNDUP FOR NORTHEAST MONTANA
NATIONAL WEATHER SERVICE GLASGOW MONTANA
900 PM MDT FRI MAY 26 2017

NOTE: "FAIR" INDICATES FEW OR NO CLOUDS BELOW 12,000 FEET WITH NO
SIGNIFICANT WEATHER AND/OR OBSTRUCTIONS TO VISISBILITY.

NORTHEAST MONTANA


CITY           SKY/WX    TMP DP  RH WIND       PRES   REMARKS
GLASGOW        CLEAR     56  39  53 NW6       29.87R
PLENTYWOOD       N/A     55  32  41 NW15G29     N/A
WOLF POINT     PTCLDY    58  38  47 W6        29.86S
JORDAN           N/A     56  36  47 N9        29.92R
WINNETT          N/A     53  36  52 NE12        N/A
SIDNEY         MOCLDY    56  38  50 W10       29.86R
GLENDIVE       PTCLDY    57  33  40 NW13      29.89R
MALTA            N/A     55  41  59 W7          N/A
SCOBEY           N/A     54  31  41 CALM      29.84S
OPHEIM           N/A     48  37  66 NW5       29.73

FORT PECK REPORTS


CITY           SKY/WX    TMP DP  RH WIND       PRES   REMARKS
FORT PECK        N/A     58  39  49 W15G33      N/A
THE PINES        N/A     55  36  48 E3G14       N/A

SOUTHEAST MONTANA


CITY           SKY/WX    TMP DP  RH WIND       PRES   REMARKS
BILLINGS       CLOUDY    57  34  41 S6        29.96R
MILES CITY     CLOUDY    60  35  39 NW6       29.90R
BAKER          CLOUDY    54  37  52 SW8       29.91R
LIVINGSTON     MOCLDY    51  38  60 E3        30.00R

CENTRAL MONTANA


CITY           SKY/WX    TMP DP  RH WIND       PRES   REMARKS
HAVRE          MOCLDY    56  40  55 S9        29.90R
LEWISTOWN      PTCLDY    52  35  52 SE5       29.97R
GREAT FALLS    MOCLDY    53  39  59 SW9       29.96R
CUT BANK       PTCLDY    53  37  54 NW8       29.94R
HELENA         MOCLDY    54  43  66 SW12      29.98F
BUTTE          PTCLDY    53  30  41 W7        30.03R
BOZEMAN        CLOUDY    54  37  52 W12       30.00R

WESTERN MONTANA


CITY           SKY/WX    TMP DP  RH WIND       PRES   REMARKS
MISSOULA       MOCLDY    62  38  40 CALM      29.97R
KALISPELL      NOT AVBL

NORTH DAKOTA


CITY           SKY/WX    TMP DP  RH WIND       PRES   REMARKS
WILLISTON      CLEAR     56  39  53 W9        29.83R
DICKINSON      CLOUDY    50  33  52 W7        29.85R
MINOT          CLEAR     58  35  42 W7        29.76R
BISMARCK       CLOUDY    57  37  47 SW5       29.83R

SOUTHERN SASKATCHEWAN


CITY           SKY/WX    TMP DP  RH WIND       PRES   REMARKS
REGINA         MOCLDY    54  34  47 W10       29.73S
ESTEVAN        PTCLDY    57  39  51 W15       29.76R
SWIFT CURRENT  CLOUDY    50  46  87 SW9       29.82R





USA.gov is the U.S. government's official web portal to all federal, state and local government web resources and services.